IZ1DSJ Weather Reports


time (UTC)temp
F
wind
direction
speed
knots
gust
knots
rain 1hr
in
rain 24hr
in
rain mn
in
humidity
%
barometer
mb
20260508013515 55 0.0 0.0 0.00 0.00 0.00 78 1011.5
20260508012516 55 0.0 0.0 0.00 0.00 0.00 77 1011.5
20260508011515 55 0.0 0.0 0.00 0.00 0.00 78 1011.6
20260508010516 55 0.0 0.0 0.00 0.00 0.00 77 1011.6
20260508005517 56 0.0 0.0 0.00 0.00 0.00 76 1011.6
20260508004535 56 0.0 0.0 0.00 0.00 0.00 75 1011.6
20260508003518 56 0.0 0.0 0.00 0.00 0.00 74 1011.8
20260508002518 56 0.0 0.0 0.00 0.00 0.00 76 1011.9
20260508001516 55 0.0 0.0 0.00 0.00 0.00 76 1011.9
20260508000518 55 0.0 0.0 0.00 0.00 0.00 77 1012.0
20260507235517 55 0.0 0.0 0.00 0.00 0.00 78 1012.1
20260507234518 55 0.0 0.0 0.00 0.00 0.00 78 1012.1
20260507233517 55 0.0 0.0 0.00 0.00 0.00 77 1012.1
20260507232518 54 0.0 0.0 0.00 0.00 0.00 78 1012.1
20260507231518 54 0.0 0.0 0.00 0.00 0.00 79 1012.1
20260507230518 54 0.0 0.0 0.00 0.00 0.00 79 1012.1
20260507225518 54 0.0 0.0 0.00 0.00 0.00 78 1012.1
20260507224517 54 0.0 0.0 0.00 0.00 0.00 79 1012.1
20260507223517 54 0.0 0.0 0.00 0.00 0.00 79 1012.0
20260507222518 55 0.0 0.0 0.00 0.00 0.00 78 1012.1
20260507221517 55 0.0 0.0 0.00 0.00 0.00 78 1012.1
20260507220517 56 0.0 0.0 0.00 0.00 0.00 77 1012.0
20260507215517 56 0.0 0.0 0.00 0.00 0.00 76 1011.9
20260507214516 56 0.0 0.0 0.00 0.00 0.00 76 1012.0
20260507213517 57 0.0 0.0 0.00 0.00 0.00 74 1012.0
20260507212517 58 0.0 0.0 0.00 0.00 0.00 73 1011.9
20260507211517 57 0.0 0.0 0.00 0.00 0.00 73 1011.9
20260507210517 57 0.0 0.0 0.00 0.00 0.00 75 1011.8
20260507205516 57 0.0 0.0 0.00 0.00 0.00 74 1011.7
20260507204517 57 0.0 0.0 0.00 0.00 0.00 73 1011.6
20260507203517 57 0.0 0.0 0.00 0.00 0.00 74 1011.5
20260507202517 57 0.0 0.0 0.00 0.00 0.00 73 1011.4
20260507201517 57 0.0 0.0 0.00 0.00 0.00 73 1011.3
20260507200536 57 0.0 0.0 0.00 0.00 0.00 74 1010.9
20260507195517 57 0.0 0.0 0.00 0.00 0.00 74 1010.9
20260507194517 58 0.0 0.0 0.00 0.00 0.00 74 1010.9
20260507193517 58 0.0 0.0 0.00 0.00 0.00 74 1010.7
20260507192516 58 0.0 0.0 0.00 0.00 0.00 73 1010.6
20260507191517 58 0.0 0.0 0.00 0.00 0.00 73 1010.5
20260507190517 58 0.0 0.0 0.00 0.00 0.00 73 1010.4
20260507185516 58 0.0 0.0 0.00 0.00 0.00 72 1010.3
20260507184517 58 0.0 0.0 0.00 0.00 0.00 72 1010.2
20260507183516 58 0.0 0.0 0.00 0.00 0.00 73 1010.0
20260507182517 58 0.0 0.0 0.00 0.00 0.00 74 1009.9
20260507181517 58 0.0 0.0 0.00 0.00 0.00 73 1009.8
20260507180536 59 0.0 0.0 0.00 0.00 0.00 73 1009.7
20260507175516 59 0.0 0.0 0.00 0.00 0.00 72 1009.7
20260507174517 60 0.0 0.0 0.00 0.00 0.00 71 1009.6
20260507173516 60 0.0 0.0 0.00 0.00 0.00 69 1009.7
20260507172536 61 0.0 0.0 0.00 0.00 0.00 67 1009.6
20260507171516 63 0.0 0.0 0.00 0.00 0.00 65 1009.6
20260507170516 65 0.0 0.0 0.00 0.00 0.00 58 1009.7
20260507165536 66 0.0 0.0 0.00 0.00 0.00 52 1009.7
20260507164516 66 0.0 0.0 0.00 0.00 0.00 51 1009.6
20260507163516 67 0.0 0.0 0.00 0.00 0.00 49 1009.7
20260507162517 67 0.0 0.0 0.00 0.00 0.00 49 1009.4
20260507161516 67 0.0 0.0 0.00 0.00 0.00 49 1009.3
20260507160516 67 0.0 0.0 0.00 0.00 0.00 49 1009.2
20260507155517 67 0.0 0.0 0.00 0.00 0.00 49 1009.2
20260507154516 67 0.0 0.0 0.00 0.00 0.00 49 1009.3
20260507153516 67 0.0 0.0 0.00 0.00 0.00 50 1009.2
20260507152536 67 0.0 0.0 0.00 0.00 0.00 50 1009.3
20260507151516 67 0.0 0.0 0.00 0.00 0.00 50 1009.3
20260507150516 66 0.0 0.0 0.00 0.00 0.00 52 1009.4
20260507145516 66 0.0 0.0 0.00 0.00 0.00 50 1009.5
20260507144516 67 0.0 0.0 0.00 0.00 0.00 51 1009.6
20260507143517 67 0.0 0.0 0.00 0.00 0.00 50 1009.6
20260507142517 67 0.0 0.0 0.00 0.00 0.00 50 1009.7
20260507141516 67 0.0 0.0 0.00 0.00 0.00 50 1009.7
20260507140516 67 0.0 0.0 0.00 0.00 0.00 51 1009.7
20260507135516 67 0.0 0.0 0.00 0.00 0.00 53 1009.8
20260507134517 66 0.0 0.0 0.00 0.00 0.00 53 1010.0
20260507133517 66 0.0 0.0 0.00 0.00 0.00 54 1010.1
20260507132516 66 0.0 0.0 0.00 0.00 0.00 51 1010.2
20260507131516 66 0.0 0.0 0.00 0.00 0.00 51 1010.3
20260507130536 65 0.0 0.0 0.00 0.00 0.00 51 1010.4
20260507125516 65 0.0 0.0 0.00 0.00 0.00 49 1010.4
20260507124516 65 0.0 0.0 0.00 0.00 0.00 53 1010.4
20260507123517 65 0.0 0.0 0.00 0.00 0.00 56 1010.5
20260507122517 65 0.0 0.0 0.00 0.00 0.00 57 1010.5
20260507121516 64 0.0 0.0 0.00 0.00 0.00 59 1010.6
20260507120517 64 0.0 0.0 0.00 0.00 0.00 58 1010.7
20260507115516 64 0.0 0.0 0.00 0.00 0.00 59 1010.7
20260507114516 64 0.0 0.0 0.00 0.00 0.00 59 1010.7
20260507113536 64 0.0 0.0 0.00 0.00 0.00 58 1010.8
20260507112517 64 0.0 0.0 0.00 0.00 0.00 60 1010.8
20260507111516 63 0.0 0.0 0.00 0.00 0.00 61 1010.8
20260507110516 63 0.0 0.0 0.00 0.00 0.00 60 1011.0
20260507105536 63 0.0 0.0 0.00 0.00 0.00 61 1010.9
20260507104516 63 0.0 0.0 0.00 0.00 0.00 62 1011.0
20260507103517 63 0.0 0.0 0.00 0.00 0.00 64 1011.0
20260507102516 62 0.0 0.0 0.00 0.00 0.00 66 1011.0
20260507101516 62 0.0 0.0 0.00 0.00 0.00 67 1011.1
20260507100516 61 0.0 0.0 0.00 0.00 0.00 67 1011.1
20260507095516 61 0.0 0.0 0.00 0.00 0.00 68 1011.1
20260507094516 61 0.0 0.0 0.00 0.00 0.00 68 1011.2
20260507093536 60 0.0 0.0 0.00 0.00 0.00 69 1011.2
20260507092517 60 0.0 0.0 0.00 0.00 0.00 69 1011.2
20260507091516 60 0.0 0.0 0.00 0.00 0.00 69 1011.2
20260507090516 60 0.0 0.0 0.00 0.00 0.00 69 1011.0
20260507085516 60 0.0 0.0 0.00 0.00 0.00 69 1010.9
20260507084516 59 0.0 0.0 0.00 0.00 0.00 70 1010.9
20260507083516 59 0.0 0.0 0.00 0.00 0.00 70 1010.9
20260507082516 58 0.0 0.0 0.00 0.00 0.00 71 1010.9
20260507081516 57 0.0 0.0 0.00 0.00 0.00 73 1010.8
20260507080516 56 0.0 0.0 0.00 0.00 0.00 75 1010.9
20260507075516 54 0.0 0.0 0.00 0.00 0.00 78 1010.9
20260507074516 52 0.0 0.0 0.00 0.00 0.00 79 1010.9
20260507073516 51 0.0 0.0 0.00 0.00 0.00 80 1010.9
20260507072536 50 0.0 0.0 0.00 0.00 0.00 80 1010.8
20260507071517 49 0.0 0.0 0.00 0.00 0.00 80 1010.8
20260507070516 49 0.0 0.0 0.00 0.00 0.00 80 1010.8
20260507065516 49 0.0 0.0 0.00 0.00 0.00 80 1010.7
20260507064516 48 0.0 0.0 0.00 0.00 0.00 81 1010.7
20260507063517 47 0.0 0.0 0.00 0.00 0.00 81 1010.7
20260507062516 47 0.0 0.0 0.00 0.00 0.00 81 1010.7
20260507061516 47 0.0 0.0 0.00 0.00 0.00 81 1010.7
20260507060516 47 0.0 0.0 0.00 0.00 0.00 82 1010.6
20260507055517 47 0.0 0.0 0.00 0.00 0.00 81 1010.5
20260507054516 47 0.0 0.0 0.00 0.00 0.00 82 1010.5
20260507053536 47 0.0 0.0 0.00 0.00 0.00 82 1010.3
20260507052516 46 0.0 0.0 0.00 0.00 0.00 81 1010.1
20260507051516 46 0.0 0.0 0.00 0.00 0.00 81 1010.1
20260507050516 46 0.0 0.0 0.00 0.00 0.00 81 1010.0
20260507045536 46 0.0 0.0 0.00 0.00 0.00 81 1009.8
20260507044515 46 0.0 0.0 0.00 0.00 0.00 81 1009.7
20260507043516 46 0.0 0.0 0.00 0.00 0.00 81 1009.6
20260507042516 46 0.0 0.0 0.00 0.00 0.00 81 1009.5
20260507041516 46 0.0 0.0 0.00 0.00 0.00 81 1009.3
20260507040516 46 0.0 0.0 0.00 0.00 0.00 81 1009.2
20260507035536 46 0.0 0.0 0.00 0.00 0.00 81 1009.2
20260507034516 47 0.0 0.0 0.00 0.00 0.00 81 1009.1
20260507033516 47 0.0 0.0 0.00 0.00 0.00 81 1009.0
20260507032516 47 0.0 0.0 0.00 0.00 0.00 81 1009.0
20260507031516 48 0.0 0.0 0.00 0.00 0.00 81 1009.0
20260507030516 48 0.0 0.0 0.00 0.00 0.00 81 1009.1
20260507025515 48 0.0 0.0 0.00 0.00 0.00 81 1009.1
20260507024515 48 0.0 0.0 0.00 0.00 0.00 81 1009.2
20260507023516 48 0.0 0.0 0.00 0.00 0.00 81 1009.3
20260507022516 48 0.0 0.0 0.00 0.00 0.00 81 1009.3
20260507021535 48 0.0 0.0 0.00 0.00 0.00 81 1009.2
20260507020537 49 0.0 0.0 0.00 0.00 0.00 81 1009.1
20260507015516 49 0.0 0.0 0.00 0.00 0.00 81 1009.3
20260507014515 49 0.0 0.0 0.00 0.00 0.00 81 1009.2